www.pogodaiklimat.ru

Погода и климат >> Архив погоды >> Бразилия >> Баия >> Макажуба


ПОГОДА в Макажубе

  • Прогноз погоды в Макажубе
  • Монитор погоды в Макажубе

АРХИВ ПОГОДЫ в Макажубе

Время (UTC), дата Ветер
(напр.,м/с)
 
Видим.   Явления Облачность Т
(С)
Тd
(С)
f
(%)
Тe
(С)
Тes
(С)
Комфортность P
(гПа)
Po
(гПа)
Тmin
(С)
Tmax
(С)
R
(мм)
R24
(мм)
S
(см)
04 12.02 ЮЗ 2
{4}
н/о н/о +24.1 -23.8 3 +21 +21 комфорт 1013.5 974.8
05 12.02 штиль 0
{4}
н/о н/о +23.7 -24.2 3 +20 +20 1013.5 974.7
06 12.02 штиль 0 н/о н/о +22.8 -24.8 3 +20 +20 1013.5 974.6
07 12.02 штиль 0 н/о н/о +21.7 -25.5 3 +19 +19 1013.7 974.7
08 12.02 штиль 0 н/о н/о +21.6 -25.6 3 +19 +19 1014.1 975.0
09 12.02 штиль 0 н/о н/о +21.8 -25.4 3 +19 +19 1014.6 975.5
10 12.02 штиль 0 н/о н/о +23.8 -24.1 3 +20 +20 1015.2 976.4
11 12.02 штиль 0 н/о н/о +26.4 -22.3 3 +22 +22 комфорт 1015.3 976.8
12 12.02 штиль 0
{2}
н/о н/о +27.9 -21.3 3 +24 +24 комфорт 1015.1 976.8
13 12.02 штиль 0
{4}
н/о н/о +29.4 -20.3 3 +25 +25 комфорт 1014.2 976.1
14 12.02 З 2
{4}
н/о н/о +31.5 -18.9 3 +27 +27 жарко 1013.1 975.3
15 12.02 З 1
{5}
н/о н/о +34.3 -17.1 3 +29 +29 жарко 1011.4 974.0
16 12.02 ЮЗ 1
{5}
н/о н/о +35.1 -16.5 3 +30 +30 жарко 1009.9 972.7
17 12.02 ЮЗ 2
{5}
н/о н/о +35.0 -16.6 3 +30 +30 жарко 1008.7 971.5
18 12.02 ЮЗ 3
{5}
н/о н/о +35.2 -16.4 3 +30 +30 жарко 1007.9 970.7
19 12.02 штиль 0
{5}
н/о н/о +36.0 -15.9 3 +31 +31 жарко 1007.1 970.1
20 12.02 штиль 0
{5}
н/о н/о +34.7 -16.8 3 +30 +30 жарко 1007.3 970.1
21 12.02 штиль 0
{3}
н/о н/о +33.1 -17.9 3 +28 +28 жарко 1008.0 970.6
22 12.02 ЮЗ 3
{6}
н/о н/о +30.8 -19.4 3 +26 +26 жарко 1009.1 971.4
23 12.02 З 3
{6}
н/о н/о +29.1 -20.5 3 +25 +25 комфорт 1010.3 972.3
01 13.02 штиль 0
{4}
н/о н/о +26.4 -22.3 3 +22 +22 комфорт 1012.0 973.6
02 13.02 штиль 0
{4}
н/о н/о +25.4 -23.0 3 +22 +22 комфорт 1011.8 973.3
03 13.02 штиль 0 н/о н/о +24.8 -23.4 3 +21 +21 комфорт 1011.7 973.1
04 13.02 штиль 0 н/о н/о +23.9 -24.0 3 +21 +21 комфорт 1011.9 973.2
05 13.02 штиль 0 н/о н/о +22.7 -24.8 3 +20 +20 1012.0 973.1
06 13.02 штиль 0 н/о н/о +21.3 -25.7 3 +19 +19 1012.0 973.0
07 13.02 штиль 0 н/о н/о +20.4 -26.4 3 +19 +19 1012.2 973.0
08 13.02 штиль 0 н/о н/о +19.8 -26.7 3 +19 +19 1012.9 973.6
09 13.02 штиль 0 н/о н/о +20.3 -26.4 3 +19 +19 1013.2 974.0
10 13.02 штиль 0
{1}
н/о н/о +22.8 -24.7 3 +20 +20 1013.4 974.5
11 13.02 штиль 0
{2}
н/о н/о +26.1 -22.5 3 +22 +22 комфорт 1013.5 975.0
12 13.02 штиль 0
{2}
н/о н/о +28.0 -21.2 3 +24 +24 комфорт 1012.9 974.7
13 13.02 штиль 0
{3}
н/о н/о +29.5 -20.2 3 +25 +25 комфорт 1012.2 974.2
14 13.02 штиль 0
{1}
н/о н/о +31.7 -18.8 3 +27 +27 жарко 1011.1 973.4
15 13.02 штиль 0
{3}
н/о н/о +32.9 -16.7 3 +28 +28 жарко 1009.7 972.2
16 13.02 штиль 0 н/о н/о +35.7 -12.9 4 +31 +31 жарко 1007.8 970.7
17 13.02 ЮЗ 1
{4}
н/о н/о +36.2 -14.6 3 +31 +31 жарко 1006.8 969.8
18 13.02 З 1
{4}
н/о н/о +36.0 -15.7 3 +31 +31 жарко 1005.9 968.9
19 13.02 З 2
{4}
н/о н/о +35.9 -16.0 3 +31 +31 жарко 1005.3 968.3
20 13.02 ЮЗ 1
{3}
н/о н/о +35.8 -16.0 3 +31 +31 жарко 1005.1 968.1
21 13.02 З 2
{4}
н/о н/о +34.0 -17.2 3 +29 +29 жарко 1005.5 968.3
22 13.02 штиль 0
{4}
н/о н/о +32.3 -18.4 3 +27 +27 жарко 1006.6 969.1
23 13.02 штиль 0
{2}
н/о н/о +30.7 -19.5 3 +26 +26 жарко 1007.7 970.0
00 14.02 ЮЗ 2
{4}
н/о н/о +30.3 -19.7 3 +26 +26 жарко 1009.1 971.3
01 14.02 ЮЗ 3
{6}
н/о н/о +28.2 -21.1 3 +24 +24 комфорт 1010.5 972.4
02 14.02 штиль 0
{5}
н/о н/о +27.3 -21.7 3 +23 +23 комфорт 1011.0 972.8
03 14.02 штиль 0
{3}
н/о н/о +26.2 -22.4 3 +22 +22 комфорт 1011.4 973.0
04 14.02 штиль 0
{2}
н/о н/о +25.5 -22.9 3 +22 +22 комфорт 1010.7 972.3
05 14.02 штиль 0 н/о н/о +25.2 -23.1 3 +21 +21 комфорт 1010.6 972.1
06 14.02 штиль 0 н/о н/о +24.9 -23.3 3 +21 +21 комфорт 1010.3 971.8
07 14.02 штиль 0
{3}
н/о н/о +24.2 -23.8 3 +21 +21 комфорт 1011.0 972.4
08 14.02 штиль 0 н/о н/о +24.4 -23.7 3 +21 +21 комфорт 1011.8 973.2
09 14.02 штиль 0 н/о н/о +24.5 -23.6 3 +21 +21 комфорт 1012.8 974.1
10 14.02 штиль 0 н/о н/о +24.7 -23.5 3 +21 +21 комфорт 1013.2 974.6
11 14.02 штиль 0 н/о н/о +25.0 -23.3 3 +21 +21 комфорт 1013.9 975.3
12 14.02 штиль 0 н/о н/о +24.9 -23.3 3 +21 +21 комфорт 1014.5 975.8
13 14.02 штиль 0 н/о н/о +25.9 -22.7 3 +22 +22 комфорт 1014.3 975.8
14 14.02 штиль 0
{3}
н/о н/о +28.5 -18.9 4 +24 +24 комфорт 1013.7 975.5
15 14.02 штиль 0
{3}
н/о н/о +28.7 -19.8 3 +24 +24 комфорт 1012.6 974.5
16 14.02 штиль 0
{1}
н/о н/о +31.9 -14.0 4 +27 +27 жарко 1010.9 973.2
17 14.02 штиль 0 н/о н/о +32.2 -13.4 5 +28 +28 жарко 1009.7 972.1
18 14.02 штиль 0 н/о н/о +33.8 -10.8 5 +29 +29 жарко 1008.9 971.5
19 14.02 штиль 0 н/о н/о +34.4 -10.7 5 +30 +30 жарко 1008.1 970.8
20 14.02 штиль 0
{2}
н/о н/о +34.2 -11.0 5 +30 +30 жарко 1008.2 970.9
21 14.02 штиль 0
{1}
н/о н/о +31.7 -17.4 3 +27 +27 жарко 1009.0 971.4
22 14.02 штиль 0
{2}
н/о н/о +30.7 -18.4 3 +26 +26 жарко 1009.2 971.5
23 14.02 штиль 0
{2}
н/о н/о +29.2 -19.9 3 +25 +25 комфорт 1010.5 972.5
00 15.02 ЮЗ 1
{4}
н/о н/о +27.7 -21.5 3 +23 +23 комфорт 1011.7 973.5
01 15.02 ЮЗ 1
{5}
н/о н/о +27.9 -21.3 3 +24 +24 комфорт 1012.6 974.4
02 15.02 ЮЗ 1
{5}
н/о н/о +26.8 -22.0 3 +23 +23 комфорт 1013.0 974.6
03 15.02 штиль 0
{3}
н/о н/о +26.2 -22.5 3 +22 +22 комфорт 1013.2 974.7
04 15.02 ЮЗ 1
{3}
н/о н/о +25.3 -23.0 3 +22 +22 комфорт 1012.7 974.2
05 15.02 штиль 0
{3}
н/о н/о +24.6 -23.5 3 +21 +21 комфорт 1012.5 973.9
06 15.02 штиль 0
{2}
н/о н/о +24.8 -23.4 3 +21 +21 комфорт 1012.4 973.8
07 15.02 штиль 0 н/о н/о +24.8 -23.4 3 +21 +21 комфорт 1012.4 973.8
08 15.02 штиль 0 н/о н/о +24.7 -23.4 3 +21 +21 комфорт 1012.8 974.2
09 15.02 штиль 0 н/о н/о +23.9 -24.0 3 +21 +21 комфорт 1013.2 974.5
10 15.02 штиль 0 н/о н/о +25.4 -21.6 3 +22 +22 комфорт 1013.5 974.9
11 15.02 штиль 0
{1}
н/о н/о +27.0 -19.5 4 +23 +23 комфорт 1013.7 975.3
12 15.02 штиль 0
{1}
н/о н/о +28.3 -17.2 4 +24 +24 комфорт 1013.6 975.4
13 15.02 штиль 0
{3}
н/о н/о +30.3 -12.2 6 +26 +26 жарко 1013.0 975.1
14 15.02 З 1
{4}
н/о н/о +31.7 -10.1 6 +27 +27 жарко 1012.0 974.3
15 15.02 штиль 0
{4}
н/о н/о +33.0 -8.4 6 +29 +29 жарко 1010.9 973.4
16 15.02 СЗ 1
{3}
н/о н/о +33.8 -8.2 6 +29 +29 жарко 1009.4 972.0
17 15.02 ЮЗ 1
{4}
н/о н/о +34.9 -8.9 6 +30 +30 жарко 1008.1 970.9
18 15.02 штиль 0
{5}
н/о н/о +35.8 -9.2 5 +31 +31 жарко 1006.7 969.7
19 15.02 ЮЗ 2
{4}
н/о н/о +36.3 -9.0 5 +32 +32 жарко 1006.0 969.0
20 15.02 З 1
{4}
н/о н/о +34.2 -14.0 4 +29 +29 жарко 1006.5 969.3
21 15.02 штиль 0
{4}
н/о н/о +33.0 -17.1 3 +28 +28 жарко 1006.8 969.4
22 15.02 штиль 0
{3}
н/о н/о +31.8 -18.7 3 +27 +27 жарко 1007.4 969.9
23 15.02 штиль 0 н/о н/о +28.9 -20.6 3 +24 +24 комфорт 1008.6 970.7
00 16.02 штиль 0 н/о н/о +28.2 -21.1 3 +24 +24 комфорт 1009.5 971.4
01 16.02 штиль 0 н/о н/о +28.8 -20.7 3 +24 +24 комфорт 1010.1 972.1
02 16.02 штиль 0 н/о н/о +28.2 -21.1 3 +24 +24 комфорт 1010.3 972.2
03 16.02 штиль 0 н/о н/о +27.3 -21.7 3 +23 +23 комфорт 1010.2 972.0
04 16.02 штиль 0 н/о н/о +26.3 -22.4 3 +22 +22 комфорт 1010.3 972.0
05 16.02 штиль 0 н/о н/о +25.4 -23.0 3 +22 +22 комфорт 1010.2 971.8
06 16.02 штиль 0 н/о н/о +24.6 -23.5 3 +21 +21 комфорт 1010.3 971.8
07 16.02 штиль 0 н/о н/о +24.3 -23.7 3 +21 +21 комфорт 1010.4 971.8
08 16.02 штиль 0 н/о н/о +23.8 -24.1 3 +20 +20 1010.9 972.2
09 16.02 штиль 0 н/о н/о +23.7 -24.1 3 +20 +20 1011.5 972.8
10 16.02 штиль 0 н/о н/о +24.8 -23.4 3 +21 +21 комфорт 1012.2 973.6
11 16.02 штиль 0 н/о н/о +26.9 -20.4 3 +23 +23 комфорт 1012.7 974.4
12 16.02 штиль 0
{1}
н/о н/о +29.5 -16.0 4 +25 +25 комфорт 1012.4 974.4
13 16.02 штиль 0 н/о н/о +31.1 -12.8 5 +27 +27 жарко 1011.8 974.0
14 16.02 штиль 0
{3}
н/о н/о +32.6 -11.9 5 +28 +28 жарко 1011.2 973.6
15 16.02 штиль 0
{4}
н/о н/о +35.4 -8.5 6 +31 +31 жарко 1009.2 972.0
16 16.02 штиль 0
{3}
н/о н/о +36.1 -6.2 6 +32 +32 жарко 1007.6 970.6
17 16.02 СЗ 1
{4}
н/о н/о +35.1 -11.4 5 +31 +31 жарко 1006.4 969.3
18 16.02 СЗ 2
{6}
н/о н/о +32.3 -17.6 3 +27 +27 жарко 1006.0 968.6
19 16.02 З 1
{7}
н/о н/о +26.4 -22.3 3 +22 +22 комфорт 1006.8 968.6 1
20 16.02 штиль 0
{4}
н/о н/о +27.2 -21.8 3 +23 +23 комфорт 1006.4 968.3 0.2
21 16.02 штиль 0
{3}
н/о н/о +28.8 -17.4 4 +24 +24 комфорт 1006.5 968.6
22 16.02 штиль 0
{2}
н/о н/о +27.2 -17.8 4 +23 +23 комфорт 1007.2 969.1
23 16.02 штиль 0
{1}
н/о н/о +26.7 -16.9 5 +23 +23 комфорт 1008.0 969.8
01 17.02 штиль 0 н/о н/о +25.4 -15.9 5 +22 +22 комфорт 1010.6 972.1
02 17.02 штиль 0
{3}
н/о н/о +26.5 -12.5 7 +23 +23 комфорт 1011.0 972.7
03 17.02 штиль 0 н/о н/о +25.4 -13.3 7 +22 +22 комфорт 1010.9 972.4
04 17.02 штиль 0 н/о н/о +25.4 -12.6 7 +22 +22 комфорт 1010.9 972.4
05 17.02 штиль 0
{3}
н/о н/о +24.4 -12.7 8 +22 +22 комфорт 1010.4 971.8 2
06 17.02 штиль 0
{4}
н/о н/о +22.8 -15.0 7 +20 +20 1010.4 971.6 5
07 17.02 штиль 0 н/о н/о +23.1 -14.1 7 +20 +20 1010.6 971.9
08 17.02 штиль 0
{1}
н/о н/о +23.3 -13.3 8 +20 +20 1011.1 972.4
09 17.02 штиль 0
{1}
н/о н/о +23.0 -13.6 8 +20 +20 1011.6 972.8
10 17.02 штиль 0
{1}
н/о н/о +24.0 -11.0 9 +21 +21 комфорт 1011.9 973.2
11 17.02 штиль 0
{1}
н/о н/о +24.7 -8.5 10 +22 +22 комфорт 1012.3 973.7
12 17.02 штиль 0
{1}
н/о н/о +27.0 -4.3 12 +24 +24 комфорт 1012.4 974.1
13 17.02 СЗ 1
{3}
н/о н/о +30.3 +1.5 16 +28 +28 жарко 1012.2 974.3
14 17.02 СЗ 1
{5}
н/о н/о +32.2 +4.7 18 +30 +30 жарко 1011.7 974.0
15 17.02 З 1
{5}
н/о н/о +34.0 +7.6 20 +32 +32 жарко 1010.8 973.4
16 17.02 штиль 0
{4}
н/о н/о +35.9 +12.0 24 +36 +36 очень
жарко
1009.3 972.2
17 17.02 З 1
{4}
н/о н/о +35.1 +10.9 23 +34 +34 очень
жарко
1008.2 971.0
18 17.02 штиль 0
{4}
н/о н/о +34.4 +9.4 22 +33 +33 жарко 1007.1 969.9
19 17.02 СЗ 1
{3}
н/о н/о +35.8 +10.4 21 +35 +35 очень
жарко
1005.8 968.8
20 17.02 штиль 0
{3}
н/о н/о +34.1 +4.9 16 +32 +32 жарко 1006.0 968.8
21 17.02 штиль 0
{3}
н/о н/о +32.5 +1.6 14 +29 +29 жарко 1007.4 969.9
22 17.02 СЗ 1
{5}
н/о н/о +29.6 -2.4 12 +26 +26 жарко 1009.4 971.5
23 17.02 С 2
{5}
н/о н/о +24.5 -9.4 10 +22 +22 комфорт 1011.2 972.6 1
01 18.02 штиль 0
{3}
н/о н/о +24.8 -9.0 10 +22 +22 комфорт 1013.8 975.1
02 18.02 штиль 0 н/о н/о +24.0 -10.0 10 +22 +22 комфорт 1014.0 975.2
03 18.02 штиль 0 н/о н/о +24.0 -10.1 10 +22 +22 комфорт 1013.2 974.5
04 18.02 штиль 0 н/о н/о +23.8 -10.1 10 +21 +21 комфорт 1013.2 974.4
05 18.02 штиль 0 н/о н/о +23.7 -10.1 10 +21 +21 комфорт 1012.0 973.3
06 18.02 штиль 0 н/о н/о +23.7 -9.9 10 +21 +21 комфорт 1011.7 973.0
07 18.02 штиль 0 н/о н/о +23.8 -7.7 12 +22 +22 комфорт 1012.0 973.3
08 18.02 штиль 0 н/о н/о +23.8 -7.7 12 +22 +22 комфорт 1012.2 973.5
09 18.02 штиль 0 н/о н/о +23.8 -7.5 12 +22 +22 комфорт 1013.4 974.6
10 18.02 штиль 0 н/о н/о +24.3 -5.8 13 +22 +22 комфорт 1013.7 975.0
11 18.02 штиль 0 н/о н/о +24.8 -4.8 14 +23 +23 комфорт 1014.8 976.1
12 18.02 штиль 0
{2}
н/о н/о +24.5 -4.9 14 +22 +22 комфорт 1015.3 976.6
13 18.02 штиль 0
{2}
н/о н/о +23.4 -6.4 13 +21 +21 комфорт 1015.9 977.0 5
14 18.02 ЮЗ 1
{4}
н/о н/о +24.1 -3.4 16 +22 +22 комфорт 1015.6 976.8 1
15 18.02 штиль 0
{4}
н/о н/о +26.1 +0.5 19 +24 +24 комфорт 1014.4 975.9
16 18.02 штиль 0
{2}
н/о н/о +28.4 +4.2 21 +27 +27 жарко 1012.8 974.6
17 18.02 ЮЗ 1
{3}
н/о н/о +29.5 +5.4 22 +28 +28 жарко 1011.5 973.5
18 18.02 штиль 0
{3}
н/о н/о +30.9 +8.3 24 +30 +30 жарко 1010.3 972.5
19 18.02 штиль 0 н/о н/о +30.9 +7.8 24 +30 +30 жарко 1009.3 971.6
20 18.02 штиль 0 н/о н/о +30.4 +7.4 24 +29 +29 жарко 1008.9 971.1
21 18.02 штиль 0 н/о н/о +29.4 +5.6 22 +28 +28 жарко 1009.0 971.1
22 18.02 штиль 0 н/о н/о +26.9 +2.0 20 +25 +25 комфорт 1009.9 971.7
23 18.02 штиль 0 н/о н/о +25.9 +0.9 20 +24 +24 комфорт 1011.3 972.9
00 19.02 штиль 0 н/о н/о +26.8 +2.5 21 +25 +25 комфорт 1012.3 974.0
01 19.02 штиль 0
{2}
н/о н/о +26.4 +2.0 21 +25 +25 комфорт 1013.0 974.6
02 19.02 штиль 0
{2}
н/о н/о +26.3 +2.1 21 +25 +25 комфорт 1013.4 975.0

 

Местоположение метеостанции Макажуба (Баия, Бразилия): широта -12.12 долгота -40.35 высота над уровнем моря 382 м.

В архиве по умолчанию представлена погода в Макажубе за последнюю неделю. Архивные данные за месяц целиком и за предыдущие месяцы, начиная с января 2011 года, Вы можете получить, выбрав интересующий диапазон дат из раскрывающегося списка и нажав кнопку "Ввод!".


*Определитесь, кто Вы:
робот инопланетянин человек

Внимание! Время в таблицах - всемирное. Для получения местного времени необходимо прибавить поправку, которая равна -3 ч.

Смотрите также архив погоды в соседних городах и на ближайших метеорологических станциях:

Погода в Итаберабе (Баия, Бразилия) (45 км)
Погода в Жакобине (Баия, Бразилия) (103 км)
Погода в Жакобине (Баия, Бразилия) (105 км)
Погода в Ленсойсе (Баия, Бразилия) (122 км)
Погода в Ленсойсе (Баия, Бразилия) (123 км)
Погода в Амаргозе (Баия, Бразилия) (128 км)
Погода в Крус-даз-Алмасе (Баия, Бразилия) (144 км)
Погода в Кеймадасе (Баия, Бразилия) (150 км)
Погода в Фейра-ди-Сантане (Баия, Бразилия) (150 км)
Погода в Серринье (Баия, Бразилия) (153 км)

Пояснения к столбцам:

Ветер - указаны скорость ветра в м/с - средняя за 10 мин, порывы в срок и между сроками (в фигурных скобках) и направление, откуда дует ветер: С - северный, СВ - северо-восточный, В - восточный, ЮВ - юго-восточный, Ю - южный, ЮЗ - юго-западный, З - западный, СЗ - северо-западный.
Видимость - горизонтальная дальность видимости в метрах или километрах. При видимости от 1 до 10 км при отсутствии осадков обычно наблюдается дымка, при ухудшении видимости до 1 км и менее - туман. В сухую погоду видимость может ухудшаться дымом, пылью или мглою.
Явления - указаны атмосферные явления, наблюдавшиеся в срок или в последний час перед сроком; фигурными скобками обозначены явления, наблюдавшиеся между сроками (за 1-3 часа до срока); квадратными скобками обозначены град или гололедные отложения с указанием их диаметра в мм.
Облачность - указаны через наклонную черту общая и нижняя облачность в баллах и высота нижней границы облаков в метрах; квадратными скобками обозначены формы облаков: Ci - перистые, Cs - перисто-слоистые, Cc - перисто-кучевые, Ac - высококучевые, As - высокослоистые, Sc - слоисто-кучевые, Ns - слоисто-дождевые, Cu - кучевые, Cb - кучево-дождевые. Подробнее классификацию облаков см. в Атласе облаков (PDF).
T - Температура воздуха - температура, измеренная на высоте 2 м над землей.
Td - Температура точки росы - температура, при понижении до которой содержащийся в воздухе водяной пар достигнет насыщения.
f - Относительная влажность воздуха - влажноcть воздуха, измеренная на высоте 2 м над землей.
Te - Эффективная температура - температура, которую ощущает одетый по сезону человек в тени. Характеристика душности погоды. При расчете учитывается влияние влажности воздуха и скорости ветра на теплоощущения человека.
Tes - Эффективная температура на солнце - температура, которую ощущает человек, с поправкой на солнечный нагрев. Характеристика знойности погоды. Зависит от высоты солнца над горизонтом, облачности и скорости ветра. Ночью, в пасмурную погоду, а также при ветре 12 м/с и более поправка равна нулю.
P - Атмосферное давление - приведенное к уровню моря атмосферное давление.
Po - Атмосферное давление - измеренное на уровне метеостанции атмосферное давление.
Tmin - Минимальная температура - минимум температуры воздуха на высоте 2 м над землей.
Tmax - Максимальная температура - максимум температуры воздуха на высоте 2 м над землей.
R - Количество осадков - Количество выпавших осадков за период времени, мм. При наведении курсора мыши на число - период времени, за который выпало указанное количество осадков.
R24 - Количество осадков - Количество выпавших осадков за 24 часа, мм.
S - Снежный покров - Высота снежного покрова, см. При наведении курсора мыши на число - состояние снежного покрова и степень покрытия местности в баллах.